User: anonymous   Login
Location: Newark
(39.8867°N, 94.3600°W)
Time: 20:53:34
(UTC+00:00)
Language:

N. Korean satellite - Orbit

View from above orbital plane
View from above orbital plane
View from above satellite
View from above satellite

Ground track
Ground track

The orbit data is extracted from the following two-line orbital elements,

1 39026U 12072A   20053.43650450 +.00000936 +00000-0 +35963-4 0  9997
2 39026 097.2197 053.7124 0035984 298.1152 061.6453 15.28349623399522
Epoch (UTC): 22 February 2020 10:28:33
Eccentricity: 0.0035984
inclination: 97.2197°
perigee height: 456 km
apogee height: 505 km
right ascension of ascending node: 53.7124°
argument of perigee: 298.1152°
revolutions per day: 15.28349623
mean anomaly at epoch: 61.6453°
orbit number at epoch: 39952

The dashed part of the orbit path shows where the satellite is in the earth's shadow,  

DLR